GFSSGP_prec_cloud_003.txt.gz
Cloud_Cover
100 100 100 100 100 100 58 72 98 86 65 56 63 83 100 94 49 57 65 3 7 45 10 5 4 38 94 100 100 100 100 98 100 100 0 3 0 0 0 0 0 0 0 0 0 0 0 12 24
100 100 100 100 100 100 89 90 79 99 68 71 88 100 100 49 7 56 6 5 5 89 100 45 84 96 73 93 100 100 100 100 44 2 0 9 3 0 0 0 0 0 0 0 6 65 6 0 0
100 100 100 100 100 92 83 40 82 76 98 98 100 98 82 9 5 5 5 5 5 5 10 78 100 100 100 100 100 100 28 7 15 1 3 26 28 0 0 0 0 0 0 6 6 6 7 15 0
100 99 100 100 100 99 61 100 100 100 100 100 100 100 21 5 5 5 5 18 6 79 100 100 100 100 100 100 100 77 29 30 18 16 16 33 5 0 0 0 0 0 0 0 0 0 0 0 0
100 100 100 100 30 86 96 100 100 91 100 100 91 26 13 5 5 5 24 100 100 100 100 100 100 100 100 94 81 11 24 22 16 15 19 23 12 2 0 0 0 0 0 0 0 0 0 0 3
100 100 100 99 73 100 100 91 35 43 78 73 28 9 6 5 23 100 100 100 100 100 100 100 100 100 100 100 79 0 0 0 6 7 23 20 3 0 0 0 0 0 0 0 0 0 0 0 0
100 100 100 100 100 100 100 100 100 74 9 5 5 5 44 100 100 100 100 100 100 100 100 100 100 100 99 5 0 0 0 0 0 0 1 1 0 0 0 0 0 0 0 0 0 0 0 0 0
100 100 100 100 100 100 100 100 74 37 6 5 47 100 100 100 100 100 100 100 100 100 100 100 100 100 58 0 6 0 0 0 0 0 0 0 0 0 0 0 0 0 0 0 0 0 0 0 0
100 100 100 100 100 100 100 100 58 28 24 100 81 100 100 100 100 100 100 100 100 100 100 100 98 4 0 0 3 21 6 1 8 2 1 0 0 0 3 0 0 0 0 0 0 0 0 0 0
100 100 100 100 100 100 100 100 75 68 99 100 100 100 100 100 100 100 100 100 100 100 100 100 86 3 0 0 0 0 0 0 0 4 0 8 3 0 0 8 0 0 0 0 0 0 0 0 0
100 100 100 100 100 100 100 100 100 100 100 100 100 100 100 100 100 100 100 100 100 100 100 92 3 0 0 0 0 0 0 0 0 0 0 0 0 15 7 29 20 33 0 0 0 0 0 0 0
100 100 100 100 100 100 100 100 100 100 100 100 100 100 100 100 100 100 100 100 100 99 30 0 0 0 0 0 0 0 0 0 0 0 0 0 0 0 0 0 0 0 8 0 0 1 0 0 0
100 100 100 100 100 100 100 100 100 100 100 100 100 100 100 100 100 100 100 100 20 28 46 70 0 0 0 0 0 0 0 1 2 0 0 0 0 0 0 0 0 0 0 2 0 0 0 0 0
100 100 100 100 100 100 100 100 100 100 100 100 100 100 100 100 100 100 78 28 39 11 68 42 90 0 0 0 1 0 2 5 5 5 5 0 4 2 0 0 0 0 2 0 0 0 0 0 0
96 100 100 100 100 100 100 100 100 100 100 100 100 100 100 100 95 72 43 5 61 58 89 100 100 1 0 0 2 5 5 5 5 5 5 5 5 5 10 5 6 15 5 5 5 5 4 5 0
0 0 5 76 85 71 32 67 88 34 64 67 94 63 44 9 18 5 0 1 5 30 66 79 98 6 0 0 4 5 5 5 5 5 5 5 5 5 12 59 55 94 100 90 60 44 38 5 5
0 32 1 0 0 0 0 74 0 0 0 0 0 0 0 0 5 5 0 0 2 5 8 57 47 0 0 5 5 5 5 5 5 16 5 5 5 5 27 82 91 80 13 5 5 5 4 5 4
14 0 0 0 0 0 0 0 0 0 0 0 0 0 0 0 5 5 0 0 0 0 0 0 71 0 5 11 76 66 64 10 26 98 100 72 48 40 6 5 5 5 5 4 4 2 6 68 98
0 0 0 0 0 0 0 0 0 0 0 0 0 0 0 0 3 1 0 0 0 0 0 58 93 5 73 97 97 100 62 77 100 88 7 72 82 98 30 5 5 5 4 4 9 77 36 16 6
0 0 0 0 0 0 0 0 0 0 0 0 0 0 0 0 0 0 0 0 0 1 5 5 29 43 98 76 100 100 91 95 90 88 100 100 80 18 78 80 5 5 22 79 8 5 27 15 5
0 0 0 0 0 0 0 3 0 0 0 0 0 0 0 0 0 0 0 0 2 5 25 25 48 74 100 100 73 48 99 76 100 98 79 52 64 100 97 94 26 23 6 13 12 5 5 5 5
0 0 0 0 0 9 0 34 3 0 0 0 0 0 0 0 0 0 2 5 5 96 100 100 100 96 73 99 53 100 100 96 68 99 80 92 100 100 100 96 5 5 5 5 5 5 31 44 5
0 0 0 0 0 0 0 0 75 4 0 0 0 0 0 0 0 0 1 36 100 100 98 100 55 5 44 84 100 100 94 99 100 100 100 99 89 37 16 5 1 8 30 58 74 96 71 86 77
0 0 0 0 0 0 3 0 98 86 3 3 0 0 0 0 2 21 100 99 100 98 91 78 84 88 100 99 86 100 100 100 85 40 5 5 12 14 40 97 100 100 100 100 100 100 90 47 35
0 0 4 4 4 39 2 0 2 0 0 2 1 0 0 4 28 94 100 100 76 5 5 41 100 96 88 84 89 55 18 30 9 35 86 100 100 100 100 100 100 100 100 76 87 100 99 100 52
0 0 1 0 2 8 0 3 88 0 0 0 0 0 0 3 25 80 56 24 39 76 95 80 75 87 98 94 71 64 6 94 95 100 100 100 100 100 86 6 8 5 71 99 100 97 38 84 90
0 0 0 0 0 0 0 7 3 0 0 4 5 6 31 48 62 65 70 100 100 59 12 13 100 100 100 100 92 84 14 28 100 100 100 99 100 90 61 16 6 95 100 100 89 85 64 76 94
0 0 4 2 22 0 4 7 100 14 25 44 94 90 87 65 86 100 80 58 70 100 100 100 100 98 70 100 78 94 100 100 100 100 100 100 46 92 17 95 64 100 98 81 95 100 100 100 98
4 5 0 0 0 1 3 22 17 10 5 24 23 91 100 100 100 100 98 100 97 100 100 98 93 100 100 94 100 97 100 100 98 83 85 100 100 84 26 39 68 97 84 69 95 98 83 98 99
0 3 0 0 2 4 2 2 46 63 56 99 99 84 91 100 68 85 96 84 100 100 100 100 100 97 69 100 100 100 100 100 100 100 100 100 33 96 91 97 65 100 100 100 100 100 99 100 100

GFSSGP_prec_cloud_006.txt.gz
Cloud_Cover
100 100 100 100 100 100 100 100 100 98 90 100 73 99 50 93 72 61 32 54 67 15 6 5 5 1 1 5 5 5 5 87 100 100 100 100 16 0 0 0 0 0 0 0 0 4 6 0 1
100 100 100 100 100 100 100 100 60 80 100 83 76 79 52 100 98 99 88 100 93 83 22 20 4 5 59 5 5 57 100 100 100 84 85 4 1 0 0 0 0 0 0 0 0 0 5 0 0
100 100 100 100 100 100 97 98 100 100 100 100 100 86 67 100 91 92 11 70 55 55 27 80 70 87 100 99 100 100 100 100 100 100 69 92 3 0 0 0 0 0 0 1 0 0 0 0 0
100 100 100 100 100 100 100 100 100 100 100 60 52 98 78 100 17 44 76 99 38 14 87 89 100 100 100 100 100 100 100 100 86 91 77 87 0 0 0 0 0 0 0 0 0 0 0 0 0
100 100 100 100 100 100 100 100 100 100 96 100 54 98 96 9 18 81 33 5 11 26 100 100 100 100 100 100 100 100 100 100 100 99 8 0 0 0 0 0 0 0 0 0 0 0 0 0 0
100 100 100 100 100 100 100 100 100 98 100 76 72 61 55 68 6 30 41 66 29 100 100 100 100 100 100 100 100 100 100 100 48 2 1 0 0 0 0 0 0 0 0 0 0 0 0 0 0
100 100 100 100 100 100 100 100 100 99 60 79 36 80 76 98 83 68 89 97 96 100 100 100 100 100 100 100 100 100 100 95 15 0 0 0 0 0 0 0 0 0 0 0 0 0 0 0 0
100 100 100 100 100 100 100 99 87 98 99 67 68 98 100 100 99 98 95 100 100 100 100 100 100 100 100 100 100 100 97 2 2 0 0 0 0 0 0 0 0 0 0 0 0 0 0 0 0
100 100 100 100 100 100 100 85 99 100 100 100 100 100 100 100 100 95 100 100 100 100 100 100 100 100 100 100 100 32 12 0 0 0 0 1 30 80 33 0 0 0 0 0 0 0 0 0 0
100 100 100 100 100 100 100 96 90 100 100 100 100 100 100 100 100 100 100 100 100 100 100 100 100 100 100 100 68 21 5 0 0 0 0 66 12 73 10 15 0 0 0 0 0 0 0 0 0
100 100 100 100 100 100 100 100 100 100 100 100 100 100 100 100 100 100 100 100 100 100 100 100 100 100 100 14 13 1 0 0 0 0 0 0 0 16 0 8 0 0 0 0 0 0 0 0 0
100 100 100 100 100 100 100 100 100 100 100 100 100 100 100 100 100 100 100 100 100 100 100 100 100 100 51 5 0 0 0 0 0 0 0 0 0 0 0 0 0 0 0 0 0 0 0 0 0
100 100 100 100 100 100 100 100 100 100 100 100 100 100 100 100 100 100 100 100 100 100 100 100 69 62 5 0 0 0 0 0 0 0 0 0 0 0 0 0 0 0 0 0 0 0 0 1 0
100 100 100 100 100 100 100 100 100 100 100 100 100 100 100 100 100 100 100 100 100 100 100 55 25 97 10 0 0 0 0 0 0 0 0 0 1 0 0 0 0 0 0 0 4 3 2 0 0
44 78 35 4 4 51 100 100 100 100 100 100 100 100 100 100 100 100 100 100 14 2 37 88 100 100 92 0 0 0 0 0 0 0 5 5 5 5 5 3 0 4 5 6 5 5 0 1 0
0 0 15 0 0 2 38 99 100 100 91 100 100 100 100 100 100 94 6 4 8 88 99 100 100 100 100 0 0 0 0 3 5 5 5 0 4 5 5 3 5 5 5 5 5 17 31 5 5
0 50 40 0 0 0 0 26 58 0 13 58 60 99 100 90 95 97 5 0 0 4 100 100 100 100 77 94 0 0 2 5 6 62 6 5 5 5 5 39 5 5 5 5 3 2 2 0 0
20 66 54 0 3 4 3 4 7 0 0 0 0 0 34 31 8 100 82 37 99 25 2 0 26 5 7 90 5 2 5 5 72 82 5 5 67 5 5 5 5 18 46 5 3 4 4 5 5
29 5 6 76 32 5 0 0 0 0 0 0 0 0 0 5 2 34 11 9 1 1 0 0 0 12 98 27 5 5 48 98 54 90 40 17 89 16 81 19 50 87 28 5 5 2 5 5 5
3 1 2 0 0 0 1 4 0 0 0 0 0 0 0 0 0 0 0 0 0 0 0 2 1 18 70 12 15 93 100 23 46 58 35 84 5 18 100 96 48 88 98 91 5 0 0 0 1
0 0 0 0 0 0 0 56 0 0 0 0 0 0 0 0 0 0 0 0 0 4 5 40 63 100 100 38 50 41 5 46 73 77 100 89 72 52 55 69 12 4 0 15 0 2 7 5 53
0 0 0 0 0 28 1 26 100 3 0 0 0 0 0 0 0 0 0 0 4 55 100 100 83 98 100 99 15 5 88 100 84 91 5 5 5 64 40 44 5 5 5 5 5 5 5 5 4
0 0 0 0 0 0 2 1 96 32 65 12 0 0 0 0 0 0 0 3 5 12 90 97 64 84 5 6 98 88 36 84 61 37 81 99 100 93 100 63 24 7 8 65 96 59 94 97 19
0 0 0 0 0 0 24 16 95 98 78 22 0 0 0 0 0 0 2 5 12 37 100 100 75 5 5 5 84 67 87 100 100 100 100 100 100 100 100 100 100 100 100 100 82 16 6 75 68
0 4 9 12 37 4 32 8 2 1 19 10 2 4 5 0 19 30 36 26 5 5 35 15 96 99 74 74 99 100 100 100 100 100 100 100 100 100 100 100 100 38 29 46 29 64 100 100 78
0 0 0 0 6 49 7 0 9 2 3 0 0 0 4 5 5 5 3 6 4 63 34 72 100 100 100 100 53 83 100 100 100 100 89 34 70 93 94 66 10 5 10 7 80 48 82 63 5
1 1 0 0 0 0 0 100 100 6 5 2 3 3 12 25 19 4 82 100 99 100 98 100 100 100 100 100 100 100 100 73 100 95 59 74 51 98 70 74 100 100 5 5 5 100 100 96 93
0 0 0 32 3 4 17 90 64 62 100 89 51 62 25 88 74 100 100 57 25 32 81 100 100 100 100 99 99 100 100 100 99 84 48 44 92 77 69 5 5 82 100 100 100 100 40 96 81
0 25 0 0 0 0 19 3 5 68 41 5 5 26 75 69 38 91 100 37 76 93 98 75 66 63 64 100 100 100 31 6 5 5 5 5 4 0 0 1 5 5 10 38 53 100 100 100 100
0 1 5 2 5 5 3 0 5 20 5 94 85 13 48 5 6 5 5 5 32 20 8 10 22 59 85 41 81 16 90 65 5 5 5 0 4 5 5 25 5 13 26 5 77 6 9 45 78

GFSSGP_prec_cloud_009.txt.gz
Cloud_Cover
100 100 100 100 100 100 100 93 100 100 100 100 80 100 89 90 12 80 90 88 83 14 34 97 91 5 5 5 54 1 0 0 5 5 31 100 100 100 100 87 54 0 0 0 0 0 0 0 0
100 100 100 100 100 100 100 100 100 100 100 94 74 80 99 100 100 62 15 62 91 62 92 81 96 68 26 6 0 3 3 6 58 72 94 100 100 100 100 8 0 0 0 0 0 0 0 0 0
100 100 100 100 100 100 100 100 100 100 100 100 88 81 100 100 94 12 92 100 82 34 97 100 56 15 14 25 92 62 48 86 100 100 100 100 100 100 100 5 0 0 0 0 0 0 0 0 0
100 100 100 100 100 100 100 100 100 100 100 100 99 99 100 100 94 98 100 100 82 100 98 98 68 48 98 100 100 100 100 100 100 100 100 100 100 83 2 4 0 0 0 0 0 0 0 0 0
100 100 100 100 100 100 100 100 100 100 100 100 100 100 100 100 100 87 88 62 91 84 100 87 98 100 100 100 100 100 100 100 100 100 100 100 100 52 5 0 0 0 0 0 0 0 0 0 0
100 100 100 100 100 100 100 100 100 100 100 100 100 100 100 100 18 59 72 18 99 94 95 100 100 100 100 100 100 100 100 100 100 100 100 100 50 10 0 0 0 0 0 0 0 0 0 0 0
100 100 100 100 100 100 100 100 100 100 100 100 100 100 100 99 100 90 76 84 96 100 100 100 100 100 100 100 100 100 100 100 100 100 100 83 0 0 0 0 0 0 0 0 0 0 0 0 0
100 100 100 100 100 100 100 100 100 100 100 100 100 100 95 60 23 58 98 100 100 100 100 100 100 100 100 100 100 100 100 100 100 100 67 5 1 0 0 0 0 0 0 0 0 0 0 0 0
100 100 100 100 100 100 100 100 100 100 100 100 99 100 100 62 49 34 95 100 100 100 100 100 100 100 100 100 100 100 100 100 97 61 31 0 0 0 0 0 0 0 0 0 0 0 0 0 0
100 100 100 100 100 100 100 100 100 100 100 100 100 100 97 36 73 98 100 100 100 100 100 100 100 100 100 100 100 100 100 91 46 0 0 0 0 0 0 0 0 0 0 0 0 0 0 0 0
100 100 100 100 100 100 100 100 100 100 100 100 100 100 97 100 100 100 100 100 100 100 100 100 100 100 100 100 100 100 93 0 0 0 0 0 0 0 0 0 0 0 0 0 0 0 0 0 0
100 100 100 100 100 100 100 100 100 100 100 100 100 100 100 100 100 100 100 100 100 100 100 100 100 100 100 100 100 40 2 1 0 0 0 0 0 0 0 0 0 0 0 0 0 0 0 0 0
100 100 100 100 100 100 100 100 100 100 100 100 100 100 100 100 100 100 100 100 100 100 100 100 100 100 100 100 100 37 5 5 5 12 5 4 0 0 0 0 0 0 0 0 0 0 0 0 0
100 100 100 100 100 100 100 100 100 100 100 100 100 100 100 100 100 100 100 100 100 100 100 100 100 100 100 100 100 100 93 74 16 5 10 0 0 2 0 5 4 3 5 2 0 0 0 0 0
6 100 100 100 100 100 100 88 100 100 100 100 100 100 100 100 100 100 100 100 100 100 100 100 100 100 100 100 100 100 91 12 74 58 4 5 5 5 0 5 4 0 0 1 4 0 0 0 0
19 100 100 100 84 44 7 99 86 86 5 88 100 100 95 98 100 91 96 97 94 82 99 97 100 100 100 100 100 100 100 100 23 39 3 2 1 3 0 5 5 5 5 5 5 5 5 2 0
9 81 5 5 0 0 0 2 4 4 0 0 3 3 27 36 47 2 13 11 17 30 35 55 9 100 100 100 100 100 100 93 25 10 5 5 3 4 5 5 7 88 32 5 5 5 5 4 5
83 97 36 4 0 0 0 46 7 0 0 0 0 0 1 20 60 54 68 39 5 5 3 15 5 59 97 88 100 58 49 39 12 27 24 4 5 10 39 49 6 5 5 5 14 5 0 1 5
100 100 50 4 0 0 3 0 0 2 5 5 5 5 4 5 0 0 1 5 5 45 9 5 0 0 5 36 5 76 81 65 57 46 79 86 50 16 74 5 5 5 0 2 4 2 5 5 5
76 71 74 5 59 6 5 33 24 5 53 2 0 0 0 0 0 0 0 0 1 2 4 5 14 26 4 4 5 16 72 92 92 99 92 87 54 70 5 5 2 3 2 5 5 2 2 5 5
6 2 2 8 2 0 0 0 0 0 0 2 2 0 0 0 0 0 0 1 0 4 4 57 50 87 46 57 22 100 45 5 30 74 97 97 64 90 77 9 7 5 5 5 5 4 5 2 5
0 0 0 0 0 0 0 5 2 0 0 0 4 0 0 0 0 0 0 0 0 0 4 5 94 100 86 96 97 98 39 30 96 90 13 31 54 68 61 68 10 5 5 5 5 5 5 5 5
0 0 0 0 0 0 0 27 100 70 73 0 43 0 5 0 0 0 0 0 0 0 0 5 19 13 99 100 39 93 100 87 24 69 91 43 7 7 7 30 61 89 100 100 89 57 6 5 5
0 0 0 0 0 0 0 12 81 22 68 5 5 12 90 12 0 0 0 0 0 2 5 5 30 37 5 29 63 75 97 89 93 95 97 95 99 100 100 100 94 13 9 5 5 4 5 5 5
0 0 0 4 1 4 7 81 95 55 47 76 5 5 2 0 0 0 2 5 3 1 3 70 100 100 20 4 1 4 11 49 86 95 100 100 98 78 58 23 5 5 2 0 0 40 98 92 56
0 0 0 0 3 4 1 14 10 5 14 93 96 17 4 5 33 5 5 5 94 100 41 20 99 100 100 96 97 70 87 90 100 100 100 81 75 87 7 4 4 2 0 4 13 26 84 78 100
0 0 0 0 0 0 0 4 67 79 84 97 98 84 36 86 5 5 2 55 5 58 85 92 60 45 25 95 85 80 86 98 58 100 95 5 18 53 5 5 0 2 0 0 5 19 5 5 16
0 0 0 0 0 0 1 5 5 69 43 90 84 90 49 89 59 71 5 5 5 5 5 5 5 5 5 5 13 52 100 100 57 52 29 17 5 5 3 0 0 0 0 0 3 13 58 18 90
0 0 0 0 0 2 4 2 5 7 21 76 20 30 13 37 72 5 5 5 5 5 6 5 5 5 5 6 6 10 19 8 5 5 0 0 0 0 0 0 1 5 47 5 4 0 0 1 17
0 0 0 0 0 0 2 1 0 8 92 20 78 93 5 29 93 5 2 5 28 69 7 5 5 5 6 40 8 42 66 19 20 5 3 5 0 0 0 0 0 0 0 3 4 5 5 5 5

GFSSGP_prec_cloud_012.txt.gz
Cloud_Cover
100 100 100 100 100 100 100 100 100 100 100 100 100 100 98 91 95 48 48 85 71 41 20 26 90 50 5 5 7 5 5 5 2 4 0 2 3 8 100 83 94 100 100 52 0 0 0 0 0
100 100 100 100 100 100 100 100 100 100 100 100 100 65 99 100 79 72 47 50 83 58 39 48 19 5 10 38 34 21 5 8 12 13 7 5 75 49 6 32 100 100 58 0 0 0 0 0 0
100 100 100 100 100 100 100 100 100 100 100 100 100 100 100 86 100 90 73 13 7 75 65 85 69 45 97 47 96 60 10 72 36 5 6 80 33 12 100 100 100 76 1 0 0 0 0 0 0
100 100 100 100 100 100 100 100 100 100 100 100 100 100 100 100 92 99 90 49 70 100 100 100 64 29 74 34 98 93 76 82 30 50 99 100 100 100 100 100 95 14 0 0 0 0 0 0 0
100 100 100 100 100 100 100 100 100 100 100 100 100 100 100 100 100 100 100 100 92 100 94 58 80 89 76 96 100 100 94 82 62 66 99 100 100 100 100 100 90 13 0 0 0 0 0 0 0
100 100 100 100 100 100 100 100 100 100 100 100 100 100 100 100 100 100 100 100 100 100 100 99 94 100 95 100 100 80 100 100 96 100 100 100 100 100 100 100 77 0 0 0 0 0 0 0 0
100 100 100 100 100 100 100 100 100 100 100 100 100 100 100 100 100 100 100 100 100 100 100 59 100 99 87 97 96 98 100 100 100 100 100 100 100 100 100 17 58 0 0 0 0 0 0 0 0
100 100 100 100 100 100 100 100 100 100 100 100 100 100 100 100 100 100 100 100 100 100 95 46 70 99 96 90 100 100 100 100 100 100 100 100 100 99 98 62 3 0 0 0 0 0 0 0 0
100 100 100 100 100 100 100 100 100 100 100 100 100 100 100 100 100 100 100 100 100 100 92 93 99 100 100 100 100 100 100 100 100 100 100 100 100 92 14 1 0 0 0 0 0 0 0 0 0
73 98 97 100 100 100 100 100 100 100 100 100 100 88 97 100 100 88 54 96 100 95 99 100 100 100 100 100 100 100 100 100 100 100 100 100 20 9 1 3 0 0 0 0 0 0 0 0 0
100 94 100 100 100 100 100 100 100 100 100 100 100 100 100 100 100 100 100 100 100 100 100 100 100 100 100 100 100 100 100 100 100 100 100 68 24 12 36 5 5 0 0 0 0 0 0 0 0
97 100 100 100 100 100 100 100 100 100 100 100 100 100 100 100 100 100 100 100 100 100 100 100 100 100 100 100 100 100 100 100 100 100 86 100 100 95 52 5 5 0 0 0 0 0 0 0 0
100 100 99 100 100 100 100 100 100 100 100 100 100 100 100 100 100 100 100 100 100 100 100 100 100 100 100 100 100 100 100 100 100 100 100 100 100 29 63 7 5 0 1 0 0 0 0 0 0
26 100 100 100 100 100 100 100 100 100 100 100 100 100 100 100 100 100 100 100 100 100 100 100 100 100 100 100 100 100 100 100 100 99 89 74 66 43 39 82 5 0 5 5 5 5 2 3 5
5 41 100 100 100 100 100 100 100 100 100 100 100 100 100 100 100 100 100 100 100 100 100 100 100 100 100 100 100 100 100 99 100 100 100 74 43 89 54 3 5 5 5 5 0 4 5 5 5
5 5 0 46 64 57 97 100 100 98 91 98 100 97 98 100 100 83 92 82 76 19 20 73 47 12 12 16 47 97 99 100 100 100 100 100 100 6 2 1 0 4 2 1 4 2 0 1 5
5 5 5 5 5 0 9 88 96 25 64 15 23 2 0 0 2 0 9 6 5 5 73 18 85 100 52 5 8 5 24 100 99 14 28 17 10 5 5 5 5 6 31 5 0 0 0 5 5
3 4 5 5 3 0 0 0 4 14 0 0 0 0 0 1 1 1 19 9 11 5 13 93 99 49 81 67 65 12 5 6 5 13 5 5 7 74 94 96 34 58 7 5 0 0 0 5 5
7 5 1 5 0 7 6 0 0 0 0 0 0 1 4 1 5 5 5 1 0 4 5 5 87 100 100 54 96 4 4 17 26 66 79 100 95 56 73 29 5 5 5 0 0 0 0 0 4
98 84 0 0 0 0 0 3 5 3 5 0 0 2 2 2 0 0 3 16 100 13 23 86 79 39 20 5 5 10 47 94 89 98 87 22 66 82 45 70 62 5 5 5 5 2 0 0 0
62 6 6 5 11 5 5 3 4 0 0 0 0 5 56 59 59 69 45 21 1 20 3 0 1 3 76 88 86 81 94 100 95 81 74 100 97 40 4 4 3 5 5 7 6 5 5 5 3
5 23 10 0 0 0 0 0 0 0 0 0 0 4 22 100 73 46 10 4 0 0 0 0 2 5 5 45 95 100 99 100 82 6 35 22 52 19 27 10 23 44 14 5 5 5 7 5 5
0 0 0 0 0 0 0 0 0 5 5 4 15 56 100 100 98 100 100 82 0 0 0 0 4 12 99 100 100 100 100 62 46 85 100 100 100 100 93 100 100 97 62 5 5 0 0 3 5
0 0 0 0 0 0 0 1 5 5 5 80 82 99 91 98 16 28 25 4 3 4 4 29 11 5 67 77 99 100 97 75 77 99 100 100 74 58 13 98 100 85 41 75 77 1 7 54 98
0 0 0 1 0 1 0 4 5 87 93 67 62 18 35 5 79 96 16 79 41 5 58 86 92 88 85 65 18 4 5 5 43 91 100 98 100 98 44 82 44 20 6 0 0 0 1 6 14
0 0 0 1 4 4 5 4 3 13 90 100 40 6 5 55 100 51 5 2 0 4 76 98 95 94 94 44 5 5 59 100 100 100 50 93 72 68 4 5 5 0 0 0 0 0 0 0 5
0 0 0 0 0 0 0 0 5 81 78 58 72 100 96 48 5 5 7 5 5 5 5 16 81 74 60 6 5 7 12 54 78 3 0 0 0 1 5 3 0 0 0 0 0 0 0 0 2
0 0 0 0 0 0 0 4 5 5 23 5 5 5 5 21 5 5 5 5 4 5 56 97 100 88 80 33 5 5 5 4 1 0 8 25 21 14 70 95 39 21 57 4 2 2 0 0 0
0 0 0 0 1 2 4 3 0 5 5 4 4 5 13 96 68 47 14 5 43 76 60 30 5 5 5 5 5 0 2 5 8 19 20 9 5 5 40 52 34 80 100 100 0 0 0 0 2
0 0 0 0 0 0 4 1 0 3 25 97 92 98 71 86 100 94 88 38 5 5 5 8 5 5 5 5 4 5 14 7 18 61 16 27 100 100 98 100 100 100 100 99 3 0 5 57 96

GFSSGP_prec_cloud_015.txt.gz
Cloud_Cover
40 99 100 100 100 100 100 100 100 100 100 100 100 100 100 100 100 100 100 98 71 75 83 90 99 77 6 4 5 4 1 10 8 5 0 3 4 1 0 0 0 0 3 4 5 7 4 0 0
98 72 100 100 100 100 100 100 100 100 100 100 100 100 100 100 100 100 100 87 87 100 100 83 91 10 5 5 5 5 4 18 11 6 5 5 4 0 0 0 5 0 5 40 79 40 5 2 0
97 88 99 100 100 100 100 100 100 100 100 100 100 100 100 100 100 100 95 72 93 89 98 100 74 64 30 45 86 5 5 4 8 18 5 5 4 1 1 5 5 5 4 100 34 10 3 0 0
90 100 100 100 100 100 100 100 100 100 100 100 100 100 100 85 100 99 99 83 92 92 100 100 99 100 22 59 44 46 5 37 16 6 8 5 5 5 21 69 95 37 100 94 20 3 2 0 0
45 98 99 100 100 100 100 100 100 100 100 100 100 100 100 55 95 99 98 72 97 97 58 71 100 100 100 99 100 99 22 44 85 5 12 5 5 65 99 77 96 73 100 93 61 0 0 0 0
7 23 78 100 100 100 100 100 100 100 100 100 100 100 100 100 100 100 100 81 100 99 100 100 100 100 100 100 100 100 96 35 18 31 19 26 85 100 100 93 93 87 28 99 18 0 0 0 0
76 65 73 100 100 100 100 100 100 100 100 100 100 100 100 100 100 100 100 100 100 100 100 93 100 98 100 100 100 100 100 95 100 100 100 100 100 91 100 100 100 100 84 10 2 0 0 0 0
5 43 67 100 100 100 100 100 100 100 100 100 100 100 100 100 100 100 100 100 100 86 100 100 100 100 100 100 100 100 100 100 100 100 100 100 100 100 93 100 70 96 95 4 3 0 0 0 0
89 100 63 65 100 100 100 100 100 100 100 100 100 100 100 100 100 100 97 98 84 100 100 100 100 100 100 95 100 100 100 100 100 100 100 100 100 100 100 100 100 67 2 2 5 0 0 0 0
99 75 100 100 100 100 100 100 100 100 100 100 100 100 100 100 100 100 100 98 100 100 100 95 100 100 100 100 100 100 100 100 100 100 100 100 75 100 100 100 39 7 4 5 5 5 0 0 0
36 99 100 100 100 100 100 100 100 100 100 100 100 100 100 100 100 100 100 100 100 100 100 100 100 100 100 100 100 100 100 100 100 100 100 100 100 100 69 61 91 21 4 5 5 5 0 0 0
100 99 100 100 100 100 100 100 100 100 100 100 100 100 100 100 100 100 100 100 100 100 100 100 100 100 100 100 100 100 100 100 100 100 100 100 100 100 42 14 5 21 5 14 19 5 5 5 1
100 100 100 100 100 100 91 97 100 100 100 100 100 100 100 100 100 100 100 100 100 100 100 100 100 100 100 100 100 100 100 100 100 100 100 73 24 55 37 64 43 87 86 100 53 5 5 5 0
100 100 98 100 95 100 100 100 100 100 100 100 100 100 100 100 100 100 100 100 100 100 100 100 100 100 100 100 100 100 100 100 100 93 75 98 100 100 100 100 100 91 100 100 10 5 0 5 0
100 100 100 100 47 100 100 100 100 100 100 100 100 100 100 100 100 100 100 100 100 100 100 100 100 91 60 86 58 100 100 8 31 100 100 88 97 100 99 100 100 100 60 3 4 4 0 0 5
100 85 34 84 99 100 100 100 100 100 100 100 100 100 100 100 92 64 91 91 99 92 75 97 100 100 100 100 100 100 100 87 59 8 0 5 5 5 5 5 5 5 5 4 5 2 0 0 0
99 28 90 99 64 47 67 98 100 100 100 100 100 99 59 20 58 29 9 88 5 85 29 82 100 100 100 100 100 100 100 77 90 5 5 5 5 11 72 35 16 47 5 5 5 2 0 0 0
16 5 5 6 5 5 5 6 12 7 52 37 5 4 1 4 15 25 9 72 67 100 99 100 100 100 100 100 100 100 100 38 33 5 5 56 59 74 98 88 74 6 5 4 0 0 0 0 0
5 5 5 0 4 5 5 5 5 5 4 2 0 0 0 0 35 41 5 4 26 17 12 100 100 100 100 70 100 77 76 59 29 5 92 100 98 99 43 5 5 5 5 3 0 0 0 0 0
5 0 0 0 1 2 3 0 0 0 1 3 5 5 5 5 62 100 71 68 26 100 96 61 20 36 99 100 50 16 41 26 96 100 48 22 64 5 5 5 4 1 0 5 5 5 5 5 5
2 0 3 1 0 0 2 26 31 18 5 2 0 0 4 5 5 49 84 89 17 18 5 3 9 2 6 0 5 17 56 30 24 23 14 24 5 2 2 4 4 4 6 26 5 22 29 12 4
5 4 3 5 16 5 4 5 4 0 0 1 4 4 5 73 76 97 9 5 83 62 29 19 23 0 0 5 5 44 99 97 43 6 4 0 1 5 9 59 14 81 100 98 100 99 19 5 13
13 5 2 0 0 0 0 0 0 0 0 1 5 5 71 69 59 5 39 96 77 5 5 0 0 5 5 5 44 91 100 100 97 72 31 76 100 100 100 17 100 100 100 37 75 0 3 2 5
0 0 0 0 0 0 0 0 0 0 2 34 59 89 87 96 80 5 5 95 8 100 100 2 0 1 5 5 5 5 5 3 23 68 35 23 100 5 14 7 28 22 5 13 0 0 0 0 0
0 0 0 0 0 0 0 0 0 0 4 5 20 42 96 64 5 6 91 100 92 23 4 4 12 42 5 5 5 5 5 5 5 11 21 25 5 5 5 5 5 5 5 4 5 3 2 0 0
0 0 0 0 0 0 0 0 0 0 5 5 5 5 5 5 90 100 88 8 5 3 5 5 5 13 5 5 5 5 5 5 3 0 6 10 5 4 5 6 23 50 45 96 60 96 91 5 65
0 0 0 0 0 0 0 0 0 0 3 5 5 5 12 90 17 4 0 5 5 5 5 5 5 5 5 5 5 5 5 4 6 46 19 4 2 10 98 98 99 100 100 100 100 84 9 50 14
0 0 0 0 0 0 0 0 0 0 2 5 5 15 3 0 0 4 5 16 27 39 9 5 5 23 8 4 4 5 6 5 5 5 0 1 6 68 24 6 73 99 100 100 100 79 57 100 49
0 0 0 0 1 1 4 0 0 0 0 1 5 3 4 5 29 23 59 82 96 95 94 94 71 82 5 50 53 22 5 2 5 3 1 8 94 89 100 96 99 100 100 100 100 99 100 100 22
0 3 0 0 0 0 4 1 0 0 0 5 68 5 5 95 100 20 100 73 58 99 79 100 83 48 35 6 5 0 5 5 0 0 0 70 93 98 100 94 83 100 100 100 100 99 100 99 5

GFSSGP_prec_cloud_018.txt.gz
Cloud_Cover
0 4 4 2 77 98 93 100 100 100 100 100 100 100 100 100 100 100 100 100 100 86 70 100 89 45 11 5 5 5 8 29 28 3 4 0 0 0 0 0 0 0 0 0 0 0 5 2 5
5 3 5 30 67 65 69 100 100 100 100 100 100 100 100 100 100 100 100 100 100 75 100 47 35 35 54 30 14 47 17 10 10 0 3 5 1 4 5 1 0 0 0 0 3 5 5 24 7
0 4 5 5 4 92 100 99 100 100 100 100 100 100 100 100 100 100 100 100 100 100 97 92 100 100 84 98 65 68 28 87 26 5 5 5 31 5 0 4 0 0 2 6 5 20 16 19 42
1 4 5 49 30 6 100 100 100 100 100 100 100 100 100 100 100 100 100 100 100 98 100 97 100 100 56 100 45 89 100 63 5 4 50 59 36 5 5 5 0 0 5 5 34 86 1 5 4
5 2 9 68 7 37 100 98 100 100 100 100 100 100 100 100 100 100 100 100 100 100 100 100 100 100 99 79 99 100 91 100 92 98 100 99 7 5 5 5 5 13 67 18 5 1 37 0 0
3 5 22 7 5 52 100 100 100 100 100 100 100 100 100 100 100 100 100 100 100 100 100 73 97 100 100 42 100 100 100 35 52 100 18 5 5 5 5 42 7 59 88 61 56 28 5 0 0
0 57 95 82 21 81 93 100 100 100 100 100 100 100 100 100 100 100 100 100 100 100 99 78 100 98 100 100 100 100 76 100 100 53 81 60 62 88 85 56 99 100 18 32 33 5 5 0 0
5 6 3 5 95 94 100 100 100 100 100 100 100 100 100 100 100 100 100 100 100 100 100 100 100 100 100 100 100 100 97 100 100 100 14 100 100 100 100 100 100 92 5 18 42 9 3 0 0
21 68 9 53 100 100 100 100 100 100 100 100 100 100 100 100 100 100 100 100 100 100 100 100 100 100 93 100 100 100 100 100 100 100 100 100 100 100 100 100 100 100 74 70 36 5 1 1 3
30 45 45 80 100 100 97 100 100 100 100 100 100 100 100 100 100 100 100 100 100 100 100 100 100 100 100 100 100 100 100 100 100 100 100 100 100 100 100 96 69 69 5 16 4 0 1 0 0
74 76 89 88 100 96 100 100 100 100 100 100 100 100 100 100 100 100 100 100 100 100 100 100 100 100 100 100 100 100 100 100 100 100 100 100 100 100 100 92 52 6 5 5 1 13 5 3 3
100 77 100 100 100 100 100 100 100 100 100 97 100 100 100 100 100 100 100 100 100 100 100 100 100 96 100 100 100 100 100 100 100 100 100 100 100 100 100 68 48 14 100 39 100 56 5 5 5
83 100 100 100 100 97 100 100 100 100 100 100 100 87 88 74 100 100 100 100 100 90 100 100 100 100 100 100 100 100 100 100 100 100 92 100 93 41 82 6 35 100 88 86 13 48 71 0 0
100 100 100 100 33 95 100 100 100 100 100 100 100 100 100 100 100 100 100 100 100 72 100 100 100 100 100 100 100 100 100 100 99 70 48 98 97 13 6 14 18 5 5 4 2 2 0 0 0
99 100 99 92 99 100 100 100 100 100 100 100 100 100 100 100 100 100 100 76 100 100 100 100 100 100 100 100 100 100 100 100 100 100 80 71 11 5 5 5 5 5 5 5 5 5 5 1 0
100 100 100 100 92 100 88 37 97 96 100 100 100 100 100 100 97 100 97 92 100 96 100 88 51 100 100 100 100 100 100 100 100 100 94 84 100 25 62 5 28 79 97 15 12 5 5 5 0
99 60 100 90 65 50 28 6 5 47 32 31 51 82 100 100 40 12 37 45 97 98 80 73 98 100 100 100 100 100 100 100 100 97 90 100 93 31 97 21 87 88 65 35 5 5 5 0 0
86 76 70 98 99 83 82 24 5 6 5 5 5 32 67 46 78 100 100 68 100 100 97 75 100 100 100 100 100 54 83 100 100 100 100 98 96 97 100 24 5 8 5 5 5 4 1 0 0
94 12 5 2 2 6 70 15 5 7 13 39 47 32 6 24 100 89 72 85 100 96 69 100 100 100 100 100 100 100 100 100 100 23 18 96 96 70 5 5 5 32 5 2 0 2 5 5 5
96 7 0 3 1 5 5 11 6 35 25 34 10 5 5 52 71 66 56 50 51 84 100 88 63 80 41 25 76 66 62 10 5 5 5 5 5 5 5 7 4 1 1 2 6 97 33 5 4
2 0 0 1 1 0 2 4 5 5 5 29 35 35 78 38 38 13 5 55 94 24 58 39 5 5 5 5 2 5 5 5 5 5 5 2 1 0 1 4 5 5 5 5 10 5 5 5 2
5 3 0 0 5 3 28 41 13 5 1 0 0 0 0 5 5 5 94 26 5 21 12 47 7 8 5 5 5 65 55 5 2 0 0 0 4 5 5 48 46 42 6 5 3 0 0 0 5
0 0 0 5 48 80 39 5 4 0 0 0 0 0 0 5 5 40 75 100 48 45 52 88 97 26 5 5 53 33 5 2 0 0 0 6 30 78 72 68 6 0 4 3 4 1 0 0 0
2 2 0 4 2 0 0 0 0 0 0 0 0 5 5 1 2 89 84 100 92 100 100 100 100 53 18 10 4 4 2 4 5 2 26 39 24 3 0 2 5 5 6 54 5 5 5 5 1
0 0 0 0 0 0 0 0 0 0 0 0 1 2 0 5 5 5 63 100 90 70 24 8 5 44 23 5 5 5 5 2 0 0 0 0 0 0 0 4 5 5 42 26 12 49 64 31 50
0 0 0 0 5 0 0 0 0 0 0 0 0 0 0 0 5 72 79 26 4 5 5 5 5 17 8 27 5 4 0 0 0 0 0 2 5 5 5 5 5 5 5 26 63 96 99 65 99
0 0 0 0 0 0 0 0 0 0 0 0 0 0 0 5 5 5 0 2 5 5 7 34 100 100 96 5 5 2 5 5 5 6 11 16 5 5 0 49 90 41 72 42 95 100 100 97 94
0 0 0 0 0 0 0 0 0 0 0 0 0 0 4 2 0 1 4 5 5 5 12 51 99 100 12 32 43 27 46 34 38 51 30 5 5 2 5 87 12 34 86 95 100 99 96 59 84
0 0 0 0 1 1 2 0 0 0 0 0 0 0 4 5 5 5 5 5 5 5 47 53 100 71 95 100 91 72 5 5 5 5 5 2 0 0 0 2 84 100 94 98 5 28 49 87 29
0 0 0 0 0 7 4 1 0 0 0 0 0 2 5 5 5 5 5 67 83 97 100 77 30 79 100 92 57 5 5 5 30 7 2 0 4 2 0 44 100 100 40 5 64 54 74 5 3

GFSSGP_prec_cloud_021.txt.gz
Cloud_Cover
0 0 0 0 0 0 3 87 7 100 100 100 100 100 100 100 100 100 100 100 100 100 100 100 100 100 45 90 48 5 5 5 5 15 5 5 3 5 5 5 0 1 13 0 0 0 0 0 0
0 0 0 0 0 0 4 3 36 56 97 100 100 100 100 100 100 100 100 100 100 100 100 100 100 100 98 92 5 5 16 13 83 6 33 25 4 0 5 1 5 48 0 0 0 0 18 5 5
0 0 0 0 4 2 3 5 5 5 66 100 100 100 100 100 100 100 100 100 100 100 100 100 100 100 85 76 6 33 26 41 59 30 21 1 0 0 1 66 1 5 0 0 0 3 5 5 5
0 0 0 3 0 0 0 6 5 5 100 96 100 100 100 100 100 100 100 100 100 100 100 100 100 100 77 89 100 100 100 43 92 62 5 6 18 5 98 33 5 5 0 5 5 5 5 82 99
4 0 1 5 3 0 0 77 5 12 44 100 100 100 100 100 100 100 100 100 100 100 100 100 96 97 100 100 100 87 98 66 26 53 33 76 12 63 11 5 5 43 5 5 46 26 100 82 10
2 5 5 5 3 4 3 5 71 67 100 100 100 100 100 100 100 100 100 100 100 100 100 100 100 100 100 100 100 98 78 59 78 100 69 8 5 37 76 20 5 5 5 30 5 78 78 32 15
68 5 15 39 3 100 39 21 100 100 100 100 100 100 100 100 100 100 100 100 100 100 100 100 100 100 100 100 99 78 100 98 80 95 100 59 94 100 94 95 41 5 100 12 97 100 9 10 4
98 52 61 35 5 5 28 100 100 100 100 100 100 100 100 100 100 100 100 100 100 100 100 100 100 100 100 100 100 100 100 99 97 100 100 100 100 100 100 100 99 40 21 100 79 73 5 68 5
98 82 88 38 5 92 100 100 100 100 100 100 100 100 100 100 100 100 100 100 100 100 100 100 100 100 100 100 100 100 100 100 67 100 100 100 100 100 100 100 100 100 100 10 6 5 0 0 0
60 100 98 99 61 97 100 100 100 100 100 100 100 100 100 100 100 100 100 100 100 100 100 100 100 100 100 100 100 100 100 98 100 100 100 100 100 100 100 98 100 92 53 5 5 5 3 3 6
99 79 99 100 98 100 100 100 100 100 100 99 100 100 100 100 100 100 100 100 100 100 100 100 100 100 100 100 99 100 100 100 100 100 100 100 100 100 92 81 99 84 56 7 2 1 6 48 5
100 82 100 100 97 100 100 94 86 100 100 100 100 100 100 100 100 100 100 100 100 100 100 100 100 100 100 100 100 100 100 100 100 100 100 100 97 98 49 95 56 16 5 4 0 5 0 0 0
100 99 100 99 95 100 93 81 100 100 100 91 98 100 100 100 100 100 98 100 100 100 99 100 98 100 100 100 100 100 100 100 100 100 98 94 92 5 5 5 4 24 31 5 5 5 2 1 0
100 100 100 100 100 100 100 100 100 100 100 100 100 100 100 94 81 97 95 81 89 99 99 72 97 94 100 100 100 100 100 100 100 100 100 100 100 67 64 28 8 76 18 34 6 13 5 5 5
100 100 100 100 100 100 100 96 100 100 100 100 100 100 100 100 100 100 100 100 100 100 68 71 81 100 100 100 100 100 100 100 100 100 100 100 100 100 66 65 100 100 96 19 5 38 5 5 5
100 100 100 100 100 99 99 100 100 100 100 100 100 100 100 100 100 100 99 98 89 84 90 97 94 100 100 100 100 100 100 100 100 100 100 100 100 100 100 96 100 100 99 5 5 31 5 5 5
100 100 100 100 100 100 100 100 100 100 100 77 100 96 63 69 94 97 96 80 96 100 100 82 100 100 100 100 100 100 100 100 100 100 100 100 100 100 100 100 100 84 2 3 2 2 5 5 5
100 100 100 100 100 99 96 90 98 100 100 100 83 78 65 36 33 100 100 95 80 70 72 42 100 100 100 100 100 100 100 100 100 100 100 100 100 93 28 11 5 0 0 0 0 2 2 0 5
100 100 100 100 60 5 5 10 18 5 5 5 5 8 17 73 96 100 70 96 89 100 100 100 100 88 100 100 100 100 100 100 100 100 100 95 80 5 5 5 5 5 0 0 1 5 5 2 0
97 100 97 100 77 13 4 3 1 5 5 5 5 6 53 100 100 68 47 35 39 58 44 45 90 100 100 100 87 5 5 13 26 13 38 1 0 2 0 0 4 5 19 70 21 4 0 0 0
100 99 99 52 6 0 4 5 5 5 5 5 5 23 88 100 100 75 26 11 5 9 7 5 17 10 5 90 66 5 5 4 5 4 0 0 0 2 1 5 5 5 4 1 0 4 5 5 2
100 84 20 5 5 9 4 1 0 0 16 18 28 66 60 62 39 1 5 5 52 90 61 94 75 38 62 65 21 76 40 40 0 0 0 0 0 0 5 4 5 5 0 2 3 0 0 0 0
11 8 5 0 0 3 0 0 0 0 3 2 0 0 0 1 0 0 5 20 5 5 32 89 78 23 62 77 47 3 0 0 0 0 0 0 0 0 0 2 0 0 0 0 5 3 5 5 11
3 0 4 1 3 5 5 29 2 0 0 0 0 0 0 0 3 6 55 55 5 11 3 8 5 5 5 5 5 22 5 2 1 4 2 3 0 0 0 0 0 0 1 6 83 84 56 40 16
0 2 5 32 21 1 0 0 0 0 0 0 0 0 0 2 5 5 5 5 26 47 4 5 5 5 12 28 5 5 5 26 5 10 5 5 0 0 0 2 5 6 80 100 100 51 5 5 5
0 0 0 0 0 0 0 0 0 0 0 0 0 0 0 0 5 7 59 90 35 4 5 5 5 5 5 5 38 13 5 37 36 18 5 0 3 5 46 54 5 42 100 83 49 6 5 5 5
0 0 0 0 0 0 0 0 0 0 0 0 0 0 0 0 5 5 5 0 0 5 5 5 5 11 41 99 100 99 98 22 5 5 7 5 9 58 98 9 5 8 2 5 39 7 6 5 5
0 0 0 0 0 0 0 0 0 0 0 0 0 0 0 2 5 2 0 0 0 2 5 5 65 100 100 93 59 77 5 5 5 5 16 81 32 5 5 5 2 2 5 56 50 48 44 5 6
0 0 0 0 0 0 0 0 0 0 0 0 0 0 1 0 0 0 3 5 8 43 54 37 79 100 100 100 100 9 5 5 5 35 44 5 5 5 4 5 5 5 5 100 76 31 25 55 86
0 0 0 0 0 1 0 0 0 0 0 5 5 5 1 5 1 5 5 5 47 22 90 100 100 100 100 100 72 22 85 38 5 5 5 5 5 5 4 5 5 5 96 93 5 14 89 99 90

GFSSGP_prec_cloud_024.txt.gz
Cloud_Cover
0 0 0 0 0 0 3 5 4 39 82 69 94 100 100 100 100 100 100 97 100 100 100 100 100 100 100 100 100 100 100 59 84 75 10 5 6 14 97 7 2 5 1 5 0 0 0 0 0
8 5 2 0 0 1 28 1 2 88 7 73 90 93 96 100 65 99 100 77 100 100 100 99 99 100 96 57 99 38 100 61 32 5 5 5 18 88 27 5 5 4 5 0 5 2 0 0 0
90 99 2 0 0 18 82 95 22 0 5 12 91 75 99 100 100 100 100 100 99 100 100 100 87 100 100 100 99 94 68 36 5 5 5 54 13 3 3 4 7 80 3 1 0 3 4 2 4
5 4 4 0 4 4 4 99 5 5 5 65 100 99 100 100 100 94 100 100 100 100 100 100 100 99 94 65 99 85 80 57 51 5 5 5 5 5 5 69 9 26 16 5 36 5 5 5 5
0 0 3 45 4 4 1 4 6 18 73 96 46 100 100 100 100 100 100 100 100 100 100 100 100 100 99 100 35 70 76 99 100 100 100 58 48 100 26 9 30 5 53 100 100 100 51 25 59
72 82 100 55 7 5 17 4 80 66 97 83 75 100 100 100 100 100 100 100 100 100 100 100 100 100 100 100 100 100 100 100 100 91 71 100 100 100 6 51 10 30 96 83 100 97 89 56 90
97 91 80 9 66 20 51 51 54 99 100 100 100 100 100 100 100 100 100 100 100 100 100 100 100 100 100 100 100 100 100 100 100 100 100 81 100 91 97 29 100 100 48 100 100 100 100 27 94
100 91 95 84 100 60 36 10 38 86 100 100 100 100 100 100 100 100 100 100 100 100 100 100 100 100 100 100 100 100 100 100 100 100 100 100 100 98 25 72 99 72 100 86 99 100 100 100 100
98 85 29 92 100 81 62 86 99 100 100 100 100 100 100 100 100 100 100 100 100 100 100 100 100 100 99 100 100 100 100 100 100 100 100 100 100 100 100 94 44 99 100 97 89 70 98 11 5
100 27 6 72 100 100 98 99 100 100 100 100 100 100 100 100 100 100 100 100 100 100 100 100 100 100 100 100 100 100 100 100 100 100 100 100 96 100 100 58 38 88 29 6 91 25 5 5 0
100 100 88 100 100 100 100 100 100 100 100 100 100 100 100 100 100 100 100 100 100 100 100 100 100 100 100 100 100 100 100 100 100 100 100 100 80 100 30 6 5 12 5 28 8 1 2 0 0
97 100 100 100 100 100 100 100 100 59 70 100 100 100 100 100 100 100 100 100 100 100 100 100 100 100 100 100 100 100 100 100 100 100 100 78 79 82 12 8 5 5 5 5 5 3 4 0 0
100 100 100 100 100 100 98 83 77 87 82 100 100 100 100 100 94 100 100 100 100 100 100 100 100 100 100 100 100 98 100 100 100 100 96 100 100 100 100 99 100 98 91 9 5 5 22 3 5
100 100 100 100 100 100 98 87 100 99 100 100 100 100 100 98 100 100 100 100 100 100 100 100 100 100 100 95 93 65 98 100 100 100 100 100 100 100 100 90 94 94 100 41 35 87 100 100 61
100 100 100 100 100 100 100 100 100 100 100 100 100 100 100 100 100 100 100 94 97 81 98 94 94 79 29 75 100 100 100 100 100 100 100 100 100 100 100 100 88 96 100 100 94 100 100 99 6
100 100 100 100 100 100 100 100 100 100 100 100 100 100 100 100 100 100 100 100 100 100 99 99 83 100 100 100 100 100 100 100 100 100 100 100 100 100 100 100 100 100 100 100 100 100 96 5 0
100 100 100 100 99 97 97 100 100 100 100 100 100 100 100 100 100 100 100 100 100 100 88 66 85 89 100 100 100 100 100 100 100 100 100 100 100 100 100 100 100 100 100 100 100 34 3 0 0
100 100 100 100 100 100 100 100 100 100 100 100 100 100 97 53 99 100 93 60 50 90 99 92 95 100 99 100 100 100 100 100 100 100 100 100 100 99 100 100 100 100 100 76 4 0 2 2 5
100 100 100 100 100 100 100 100 100 100 100 100 100 92 72 40 35 74 45 17 68 100 100 100 100 100 100 99 100 100 100 100 100 100 100 100 100 100 100 100 29 0 0 0 4 2 0 0 4
100 100 100 100 100 100 100 86 84 64 44 30 46 81 99 100 80 14 55 60 100 100 100 67 62 36 7 22 95 99 100 66 77 66 15 17 18 27 5 5 4 0 0 0 1 5 4 2 5
100 100 100 100 100 100 98 53 21 2 3 6 68 86 74 55 34 27 34 85 100 100 96 87 45 16 5 82 100 23 0 0 0 2 0 0 1 2 0 0 0 0 0 0 0 1 4 5 5
100 100 100 100 73 97 10 98 0 0 4 7 5 5 5 5 5 5 10 24 74 100 100 43 5 4 10 5 2 0 3 4 5 6 41 5 5 5 5 0 0 0 0 0 5 5 5 5 4
100 100 69 32 41 8 0 0 3 1 5 3 5 5 11 0 0 0 5 5 6 49 17 5 4 0 0 5 5 5 7 96 82 35 8 63 47 5 5 0 0 5 5 5 5 5 67 6 5
100 85 78 17 5 2 4 0 3 6 25 42 0 0 8 0 0 3 5 5 5 5 5 5 0 0 4 5 5 26 77 68 94 100 84 8 8 4 5 4 4 2 2 5 5 48 80 63 27
81 10 12 2 0 0 2 19 9 0 0 0 0 0 0 0 0 5 5 5 5 5 5 2 3 5 5 5 25 47 100 100 69 11 29 52 3 0 0 2 5 5 5 6 70 90 100 100 99
5 3 0 2 5 13 0 0 0 0 0 0 0 0 0 3 5 2 3 5 5 5 4 5 5 5 9 95 99 99 100 85 94 93 4 2 5 9 48 9 5 5 6 93 79 100 100 100 100
7 16 8 1 0 0 0 0 0 0 0 0 1 5 5 5 5 5 5 5 5 1 2 0 5 5 10 9 71 98 98 97 100 100 8 5 22 49 5 5 5 5 91 100 100 96 91 77 68
0 0 0 0 0 0 0 0 0 0 4 5 5 5 5 5 0 2 5 5 0 3 2 5 5 9 91 100 100 100 75 98 86 85 36 33 30 5 5 5 5 5 13 94 99 98 74 74 97
0 0 0 0 0 0 0 4 5 5 5 5 5 5 5 5 5 5 5 5 5 5 5 44 97 100 98 100 100 26 70 84 73 58 40 5 5 5 5 5 5 5 42 95 81 46 90 88 99
0 0 0 0 2 5 5 5 5 4 4 5 5 5 5 5 5 5 5 5 24 58 81 97 52 60 100 100 81 56 75 86 5 5 5 5 5 5 5 6 40 44 82 87 100 100 82 90 100

GFSSGP_prec_cloud_027.txt.gz
Cloud_Cover
5 5 1 0 0 0 0 28 10 2 40 42 91 5 8 95 96 89 98 100 100 95 51 98 100 100 100 76 79 5 5 50 88 86 79 87 15 4 5 15 11 7 0 1 0 3 4 0 1
7 60 68 25 3 2 43 93 0 8 97 5 5 7 35 58 46 55 98 100 100 93 98 100 100 100 100 96 5 6 6 59 21 9 50 36 29 61 5 2 4 0 26 3 5 5 2 3 0
96 94 44 48 6 28 98 85 4 26 90 35 5 5 23 23 30 78 36 75 100 100 100 100 100 100 100 99 93 20 15 5 5 5 5 4 3 4 22 5 75 86 14 77 10 11 4 5 0
100 100 100 100 84 97 38 1 0 87 5 0 1 16 73 98 92 31 54 77 100 85 100 100 100 100 100 100 95 65 51 29 5 5 23 5 81 99 100 100 100 100 100 25 5 99 5 5 25
9 38 37 59 6 82 3 2 98 21 86 91 56 40 94 97 100 100 97 61 84 100 100 100 100 100 100 100 100 90 62 87 100 100 100 100 100 100 100 100 99 64 75 7 82 46 85 56 5
5 4 3 33 100 23 16 98 40 97 97 91 92 84 27 61 10 84 80 93 100 100 100 100 100 100 100 100 100 100 100 100 100 100 100 100 100 100 100 98 72 97 100 100 100 42 54 10 100
97 83 52 94 100 99 95 13 100 4 4 94 6 99 56 88 14 47 100 100 100 100 100 100 100 100 100 100 100 100 100 100 100 100 100 100 100 100 100 99 100 100 100 92 7 44 63 11 70
97 100 87 100 100 100 94 59 5 4 64 37 9 73 96 58 40 42 73 100 100 100 100 100 100 100 100 100 100 100 100 100 100 100 100 100 100 100 100 100 100 100 89 33 94 5 6 5 5
97 99 99 100 99 100 46 78 5 3 21 88 51 100 100 53 89 66 81 100 100 100 100 100 100 100 100 100 100 100 100 100 100 100 100 100 100 100 100 100 100 100 100 89 5 16 5 5 5
99 100 100 100 98 100 99 69 18 10 43 100 98 100 94 91 80 99 87 100 100 100 100 100 100 100 100 100 100 100 100 100 100 100 100 100 100 100 100 46 77 100 87 12 5 6 4 2 4
100 100 100 68 100 81 100 21 54 41 67 100 63 75 100 100 100 100 100 100 100 100 100 100 100 100 100 100 100 100 100 100 100 100 100 100 100 100 100 95 92 18 5 24 5 39 6 5 2
100 100 100 100 88 100 36 99 82 91 100 100 100 59 99 68 100 100 100 100 100 100 100 100 100 100 100 100 100 100 100 100 100 100 100 100 100 100 63 98 98 96 43 46 70 35 70 18 5
100 100 100 87 100 100 83 91 100 100 100 100 100 98 87 96 90 100 100 100 100 100 100 100 100 100 100 100 100 100 100 100 100 100 100 100 100 100 100 85 64 84 100 91 58 24 15 100 100
100 100 100 100 100 100 99 58 100 98 70 50 91 73 74 11 87 100 100 100 100 100 100 100 100 100 100 100 100 100 100 100 100 100 96 97 67 100 100 100 100 100 100 97 91 70 82 100 100
100 100 100 100 100 82 100 96 100 100 100 100 100 100 99 36 18 92 100 100 100 100 100 100 100 100 100 100 100 100 100 100 100 100 100 100 100 100 100 100 100 100 100 100 100 100 100 85 87
100 100 100 100 100 96 100 100 100 100 100 100 100 100 100 100 100 100 100 100 100 100 99 71 58 89 97 73 100 100 100 100 100 100 100 100 100 100 100 100 100 100 100 100 87 100 97 92 76
100 100 100 100 100 100 100 90 100 99 99 100 95 100 100 25 97 100 100 100 100 96 97 97 100 100 87 87 100 100 100 100 100 100 100 100 100 100 100 100 74 56 78 95 99 73 22 34 25
100 100 100 100 100 100 100 97 69 36 100 100 88 100 100 100 89 91 98 92 100 100 100 100 100 100 97 68 91 100 100 100 100 100 100 96 31 10 87 94 86 30 22 16 5 9 5 0 0
100 100 100 100 100 100 100 100 100 63 83 100 100 100 100 100 100 100 100 32 39 63 99 100 100 100 62 82 91 95 99 100 80 100 100 100 20 21 96 100 100 100 82 28 58 1 3 0 0
100 100 100 100 100 94 98 100 100 100 100 100 100 100 100 98 99 79 78 56 30 68 99 100 100 98 87 65 87 78 23 0 3 5 7 55 20 18 23 42 47 5 8 0 0 3 4 0 0
100 100 100 100 90 99 92 100 100 100 78 60 87 99 99 60 16 5 21 53 84 99 98 63 74 95 57 96 22 6 1 1 5 16 59 94 21 6 69 65 65 44 19 0 0 5 5 5 5
100 100 100 100 91 100 100 100 100 100 37 20 10 5 5 5 11 20 50 100 100 87 95 55 61 97 37 0 0 4 10 67 44 33 10 19 43 83 33 4 6 0 2 5 5 5 5 5 5
100 100 100 100 100 100 100 100 82 97 5 5 5 5 5 6 55 44 32 16 94 100 100 96 35 32 2 0 5 5 14 7 12 27 91 82 48 5 5 3 2 1 4 2 5 5 5 6 82
100 100 78 41 100 81 29 100 100 55 9 5 5 11 50 39 4 1 0 1 20 56 9 12 2 0 0 0 5 5 5 5 5 60 100 80 46 45 42 62 1 0 3 5 5 54 80 100 88
97 100 100 100 98 8 53 5 5 84 4 5 3 0 0 0 0 0 0 0 0 0 0 3 5 0 0 3 5 5 5 54 43 92 50 5 55 70 84 35 5 5 5 5 5 18 92 66 74
100 100 100 86 100 55 14 1 46 5 2 0 0 0 0 0 0 0 0 0 0 0 2 5 3 0 0 5 5 8 40 49 98 75 5 5 60 99 6 5 5 5 5 5 36 51 90 36 7
9 5 4 0 1 6 10 4 2 0 0 0 0 0 0 0 0 0 0 0 0 0 5 5 4 3 5 5 5 13 66 100 100 40 8 7 92 10 5 5 5 5 5 5 81 59 23 56 5
3 1 4 5 9 0 76 3 63 0 0 0 4 0 0 0 0 1 1 5 0 5 5 6 5 5 5 29 59 63 80 100 100 26 5 78 56 14 5 5 5 5 5 30 85 93 13 57 22
5 4 1 1 1 3 0 4 0 0 0 0 2 5 1 1 5 5 5 5 5 6 27 5 8 8 5 5 22 91 100 100 21 81 36 98 80 5 5 5 5 5 8 29 5 11 5 11 76
0 4 4 0 0 0 0 0 0 0 5 5 5 5 5 5 14 8 5 5 5 9 22 23 12 5 62 41 52 100 100 75 78 76 83 100 12 5 5 5 6 40 48 17 68 82 23 98 100

GFSSGP_prec_cloud_030.txt.gz
Cloud_Cover
0 0 0 0 2 0 0 0 95 62 39 14 0 57 100 13 98 67 50 100 100 99 68 64 100 100 100 100 100 88 92 100 89 20 76 5 5 5 0 0 0 0 0 0 0 1 0 5 48
8 8 11 5 3 0 7 38 100 4 98 3 0 0 19 98 64 94 80 100 44 53 78 93 100 100 100 100 100 100 100 96 89 90 25 5 5 6 5 13 4 4 2 5 21 81 72 5 55
100 99 14 5 49 8 74 54 76 13 16 0 0 2 0 0 4 74 33 87 98 16 33 99 92 100 100 100 100 100 100 100 100 100 98 70 14 42 91 35 70 79 89 100 100 66 32 5 5
98 19 100 100 98 100 98 81 0 100 97 24 2 0 0 0 3 2 16 100 81 73 100 100 100 100 100 100 100 100 100 100 100 100 100 100 100 100 100 81 100 100 100 100 100 94 99 5 100
64 22 100 100 100 100 100 18 4 12 100 65 68 42 1 0 0 93 14 18 65 98 100 100 100 100 100 100 100 100 100 100 100 100 100 100 100 100 100 100 100 100 100 100 100 61 100 100 100
100 100 100 100 100 100 98 2 39 5 40 76 89 100 14 0 0 23 37 37 95 100 100 100 100 100 100 100 100 100 100 100 100 100 100 100 100 100 100 100 100 100 100 100 100 100 100 100 87
98 55 47 9 100 85 82 26 0 15 100 37 100 98 53 81 0 10 34 100 100 100 100 100 100 100 100 100 100 100 100 100 100 100 100 100 100 100 100 100 100 100 100 100 100 100 100 100 93
87 92 7 88 69 98 89 96 8 77 100 98 36 100 100 45 92 18 41 100 100 100 100 100 100 100 100 100 100 100 100 100 100 100 100 100 100 100 100 100 100 100 98 68 100 100 94 6 6
42 27 95 100 88 30 95 77 100 87 100 100 94 100 43 91 79 91 90 100 100 100 100 100 100 100 100 100 100 100 100 100 100 100 100 100 100 100 100 100 100 100 99 100 76 54 5 78 5
26 61 100 100 60 63 100 100 100 47 85 86 97 100 59 100 100 90 100 100 100 100 100 100 100 100 100 100 100 100 100 100 100 100 100 100 100 100 100 92 100 100 100 100 74 18 62 5 4
23 70 98 100 99 100 100 100 100 22 100 29 51 90 43 42 100 74 100 100 100 100 100 100 100 100 100 100 100 100 100 100 100 100 100 100 100 100 96 97 99 98 93 100 95 100 70 5 4
5 96 41 98 100 86 100 100 100 89 65 94 100 100 100 100 99 81 100 100 100 100 100 100 100 100 100 100 100 100 100 100 100 100 100 100 100 100 100 97 79 100 92 65 43 49 89 54 99
42 71 100 100 100 99 93 100 100 100 78 100 100 100 100 100 42 100 100 100 100 100 100 100 100 100 100 100 100 100 100 100 100 100 100 100 100 100 80 84 64 100 58 89 100 79 43 82 77
90 100 100 100 100 100 89 73 99 76 57 100 100 100 66 40 96 76 100 100 100 100 100 100 100 100 100 100 100 100 100 100 100 100 100 100 99 94 99 72 100 99 99 86 100 98 92 100 100
100 100 100 100 100 100 100 100 100 50 15 100 100 100 100 100 77 14 71 99 98 100 100 100 100 100 100 100 100 100 100 100 100 100 100 100 100 100 100 100 63 100 100 100 92 100 82 100 100
100 100 100 100 100 100 100 99 100 7 20 34 97 100 100 100 38 100 98 100 100 100 100 100 100 100 100 100 100 100 100 100 100 100 100 100 99 99 100 100 100 100 100 100 89 42 5 40 37
100 100 100 100 100 100 96 100 44 82 67 38 12 43 88 18 7 98 92 100 100 100 100 100 100 100 100 100 100 100 98 100 100 100 97 96 100 100 100 86 90 100 100 95 76 5 5 5 0
100 100 100 100 100 100 76 83 53 77 80 89 69 44 32 12 31 49 86 83 100 100 100 100 100 100 100 100 100 94 89 100 99 99 71 37 18 91 87 60 37 96 100 88 94 8 5 3 0
100 100 100 98 100 100 100 85 18 31 71 82 16 68 100 100 100 73 86 100 100 77 100 100 45 14 66 79 72 100 100 100 45 17 9 4 1 0 0 0 1 4 41 5 0 0 0 0 0
100 100 100 96 89 93 100 100 100 97 88 85 7 48 61 77 98 100 100 60 100 93 64 59 100 94 57 42 8 5 25 18 7 0 3 4 5 5 5 5 34 5 1 5 4 0 0 0 0
100 100 95 76 100 100 100 100 100 91 58 89 100 96 96 100 100 100 82 76 46 49 20 56 100 13 5 5 5 90 6 0 0 0 0 5 26 64 7 26 27 5 5 5 1 0 0 0 0
100 50 88 100 65 85 100 99 100 68 100 100 99 80 18 6 5 5 23 53 57 16 5 53 22 5 5 70 87 36 0 0 2 26 0 5 29 72 78 15 4 5 5 1 0 0 3 1 2
96 15 36 59 98 100 100 71 93 100 100 95 10 3 0 5 5 5 5 5 10 22 11 64 31 24 94 1 57 0 93 99 14 5 24 83 89 91 5 0 5 5 5 0 0 5 5 5 5
90 94 100 100 100 100 100 100 100 94 87 97 100 74 5 5 5 12 48 32 100 65 0 26 70 92 2 0 8 0 0 5 5 13 100 100 92 6 3 4 5 5 0 1 0 2 16 16 5
64 100 97 100 100 100 96 100 100 56 86 100 100 95 6 14 40 67 88 14 0 60 18 57 8 0 0 0 0 0 5 5 5 13 5 66 62 57 16 5 5 4 5 5 5 5 5 10 5
91 100 100 100 100 86 100 77 46 1 5 61 70 11 5 26 3 7 10 38 45 2 0 0 0 0 0 0 5 5 5 5 7 6 20 98 100 100 28 5 54 35 69 5 14 16 24 5 5
99 100 100 100 100 98 5 5 5 5 38 5 5 2 0 0 0 0 0 0 0 0 0 0 0 0 8 16 5 5 5 5 72 100 100 100 100 25 5 5 5 75 72 86 44 5 5 5 7
100 100 93 100 78 5 4 44 100 66 8 0 0 0 1 0 0 0 0 0 0 0 0 0 0 5 95 6 5 5 5 15 56 97 100 100 20 65 54 5 64 100 100 100 100 100 80 5 5
62 31 7 5 31 54 5 72 30 0 0 0 0 0 0 0 0 0 0 0 0 0 5 5 4 5 82 12 5 5 8 89 100 96 100 100 99 80 5 84 100 100 100 100 100 18 5 5 29
83 22 5 0 5 5 0 0 0 0 0 0 0 0 1 0 0 0 0 0 5 5 9 5 98 98 100 47 5 12 30 100 82 95 100 100 77 45 80 88 100 74 100 84 5 5 5 48 100

GFSSGP_prec_cloud_033.txt.gz
Cloud_Cover
0 5 0 0 0 0 0 3 0 0 0 0 80 8 5 3 5 29 100 39 5 68 100 100 100 100 100 100 100 100 100 91 100 62 100 87 100 100 100 100 57 6 12 5 5 0 5 3 5
89 84 30 0 0 4 52 4 0 1 21 24 4 57 58 38 0 95 100 69 69 59 97 100 100 100 100 100 100 100 100 100 100 97 100 100 100 100 100 98 88 98 90 14 18 60 93 51 100
88 100 93 5 1 5 60 8 5 19 98 100 84 100 88 1 2 87 93 54 97 54 90 100 100 99 100 100 100 100 100 52 77 100 100 100 100 100 100 100 100 100 99 91 89 74 90 100 100
36 97 94 9 4 54 73 16 22 6 3 50 100 24 5 99 16 37 100 100 100 100 100 100 98 100 100 100 100 100 100 75 99 100 100 100 100 100 100 100 100 100 100 100 100 100 98 60 100
100 72 88 100 100 100 100 100 100 4 23 7 100 5 6 0 0 17 100 100 100 100 97 100 100 100 99 100 100 100 100 100 100 97 100 100 100 100 100 100 100 100 100 100 100 100 100 100 100
100 94 100 100 100 100 38 9 5 5 0 3 4 3 76 100 17 4 98 100 100 100 100 100 100 100 100 100 100 100 100 100 100 100 100 100 100 100 100 100 100 100 100 100 100 100 98 98 100
100 100 100 100 100 100 64 2 90 90 5 84 66 4 94 100 77 84 96 100 100 100 100 100 100 100 100 100 100 100 100 100 100 100 100 100 100 100 100 100 100 100 100 100 100 100 100 100 100
100 100 100 100 100 100 57 38 96 82 6 59 99 5 25 100 100 98 100 100 100 100 100 100 100 100 100 100 100 100 100 100 100 100 100 100 100 100 100 100 100 100 100 100 100 100 98 100 98
100 100 100 100 87 100 100 71 100 100 100 79 99 31 66 99 100 100 100 100 100 100 100 100 100 100 100 100 100 100 100 100 100 100 100 100 100 100 100 100 100 100 100 100 92 59 100 100 100
100 100 96 5 96 92 100 100 100 100 100 100 74 89 99 96 100 100 100 100 100 100 100 100 100 100 100 100 100 100 100 100 100 100 100 100 100 100 100 100 100 100 100 99 100 100 81 91 64
100 100 100 63 98 34 100 100 100 100 100 100 94 80 100 100 100 100 100 100 100 100 100 100 100 100 100 100 100 100 100 100 100 100 100 100 100 100 100 100 100 100 100 100 99 100 59 79 100
100 100 100 62 92 100 100 100 100 100 80 12 9 98 100 100 100 100 100 100 100 100 100 100 100 100 100 100 100 100 100 100 100 100 100 100 100 100 100 100 100 100 100 100 100 100 65 100 100
100 100 100 96 100 100 100 100 100 100 100 5 100 100 100 100 100 100 100 100 100 100 100 100 100 100 100 100 100 100 100 100 100 100 100 100 100 100 100 100 100 100 100 100 100 100 100 91 98
95 100 100 100 75 100 100 100 100 100 98 72 84 100 100 100 100 88 100 100 100 100 100 100 100 100 100 100 100 100 100 100 100 100 100 100 100 100 100 100 100 100 100 100 100 100 100 58 58
99 97 100 100 100 51 100 100 100 100 100 98 100 93 100 100 100 100 100 100 100 100 100 100 100 100 100 100 100 100 100 100 100 100 100 100 100 100 100 100 100 100 100 100 100 100 93 99 79
94 100 100 100 93 56 100 100 100 100 98 82 100 100 100 100 100 100 80 54 100 100 100 100 100 100 100 100 100 100 100 100 100 100 100 100 100 100 100 100 100 100 21 23 21 5 3 2 0
82 100 100 100 100 100 100 45 71 98 33 6 100 100 100 100 100 100 100 36 67 84 100 100 100 100 100 100 100 100 100 100 100 100 100 100 100 98 100 100 69 11 43 28 5 0 0 0 0
100 100 100 100 100 100 98 21 13 99 14 18 85 94 100 100 100 100 100 80 23 41 99 100 100 100 100 100 100 100 100 100 100 100 93 100 100 100 100 57 40 20 5 4 0 0 0 0 0
100 100 98 100 100 100 88 97 66 63 92 6 7 44 99 54 95 100 100 100 100 96 100 100 100 100 100 100 100 100 100 100 100 100 100 85 100 87 74 36 32 5 5 5 0 0 0 0 0
99 73 100 100 100 100 95 100 68 43 93 67 100 100 100 99 93 96 84 100 100 100 100 69 63 98 100 100 100 99 100 34 7 14 12 18 59 61 15 5 23 5 12 0 0 0 0 0 0
99 87 23 100 100 94 99 62 75 100 100 100 66 6 32 98 30 34 62 98 100 95 100 81 63 14 10 19 93 100 17 21 21 12 5 5 5 5 5 5 5 5 3 0 0 0 0 0 0
94 88 100 100 100 100 100 99 100 100 49 20 67 100 100 100 41 18 6 10 5 63 83 54 19 10 5 15 29 9 5 4 0 0 2 5 24 12 5 5 5 5 5 55 2 0 0 0 0
97 60 85 90 92 100 100 43 26 76 100 100 100 84 36 98 72 5 4 0 1 5 5 7 5 5 10 7 4 2 0 0 0 0 0 5 5 3 5 5 38 100 90 93 5 5 5 5 5
98 91 97 99 100 100 100 70 100 80 93 100 100 32 5 87 9 67 36 0 5 5 5 5 4 0 3 2 6 48 12 0 0 0 5 24 62 89 46 24 100 100 97 25 0 0 2 5 5
100 33 73 85 100 100 100 100 92 83 97 100 100 5 90 32 2 78 13 5 2 0 0 0 0 0 0 5 0 0 0 0 0 47 54 80 99 82 73 94 100 100 5 5 5 5 5 5 5
94 96 100 97 96 100 100 67 54 100 99 96 37 99 66 58 31 28 2 0 0 0 0 0 0 0 0 0 2 1 0 0 2 5 11 41 85 97 14 100 100 21 5 5 21 86 74 35 48
100 98 46 99 100 92 94 94 1 0 0 6 0 32 100 100 97 0 0 0 0 0 0 0 0 0 0 0 5 5 5 5 31 87 55 100 100 82 99 72 100 96 96 84 87 100 100 100 67
80 94 33 8 100 100 100 100 68 18 91 20 3 55 72 68 0 0 0 0 0 0 0 0 46 0 0 0 0 5 86 50 85 93 100 100 100 100 100 71 48 99 39 8 98 91 49 5 6
100 100 100 82 90 100 100 100 75 58 55 4 1 0 0 0 0 0 0 0 0 0 0 0 0 0 0 5 5 7 83 87 100 99 99 100 100 100 100 96 100 55 39 41 71 5 66 86 90
99 100 100 100 6 100 14 10 4 67 5 0 0 0 0 0 0 0 0 0 0 0 0 0 0 2 5 5 4 4 5 84 90 100 100 100 100 97 52 62 6 5 5 5 69 35 68 75 94

GFSSGP_prec_cloud_036.txt.gz
Cloud_Cover
1 0 0 4 0 0 0 0 0 0 0 0 0 5 47 76 22 20 34 24 100 100 68 22 36 100 100 98 99 86 98 99 99 100 100 100 100 100 100 100 92 100 88 99 38 6 57 92 5
14 0 0 5 5 0 0 0 0 5 4 5 0 2 9 90 49 92 46 82 100 100 86 58 100 78 88 90 99 100 100 98 100 100 100 100 100 100 100 100 100 100 99 100 81 87 100 93 49
2 0 17 31 66 3 14 4 5 6 7 14 3 0 0 68 99 93 36 100 100 100 78 92 81 31 100 100 100 100 100 100 100 100 100 100 100 100 100 100 100 100 100 99 99 100 100 100 100
91 59 62 100 100 100 99 82 6 5 5 64 89 100 100 100 42 61 90 83 70 100 73 100 80 85 99 100 100 100 100 100 100 100 100 100 100 100 100 100 100 100 100 100 100 40 100 100 47
100 28 13 100 100 100 100 100 14 44 2 26 0 30 19 89 9 8 100 77 98 80 100 100 100 100 100 100 100 100 100 100 100 100 100 100 100 100 100 100 100 100 100 100 100 99 19 8 8
98 100 84 100 100 56 5 2 3 29 100 88 82 0 88 100 60 85 100 100 100 100 100 100 100 100 100 100 100 100 100 100 100 100 100 100 100 100 100 99 100 100 100 100 100 100 72 100 85
100 38 100 100 100 100 83 4 80 97 100 100 100 9 96 100 94 100 100 100 100 100 100 100 100 100 100 100 100 100 100 100 100 100 100 100 100 100 99 100 100 100 100 100 100 95 90 100 100
100 94 100 100 100 100 40 4 75 100 100 100 100 78 80 100 100 98 100 100 100 100 100 100 100 100 100 100 100 100 100 100 100 100 100 94 100 100 100 100 100 100 99 93 100 100 100 100 100
100 100 100 99 21 2 5 46 100 100 99 100 92 54 97 100 98 83 99 98 100 100 100 100 100 100 100 100 100 100 100 100 100 100 94 100 100 100 100 100 100 100 100 100 100 100 100 100 100
100 100 100 81 57 12 33 23 100 100 100 93 100 100 100 100 100 100 100 100 96 100 100 100 100 100 100 100 100 100 100 100 100 100 100 100 100 100 100 100 100 100 100 100 100 100 100 100 100
100 100 100 98 95 7 5 98 100 100 100 9 100 100 100 100 100 100 99 100 100 100 100 100 100 100 100 100 100 100 100 100 100 100 100 100 100 100 100 100 100 100 100 100 100 100 100 100 100
100 100 100 86 36 7 83 100 100 100 100 57 100 100 100 100 100 100 100 100 100 100 100 100 100 100 100 100 100 100 100 100 100 100 100 100 100 100 100 100 100 100 100 100 100 100 100 100 100
100 99 100 100 95 73 100 100 100 100 100 48 97 100 100 100 100 100 100 100 100 100 100 100 100 100 100 100 100 100 100 100 100 100 100 100 100 99 100 100 99 98 100 100 96 100 100 100 100
100 97 100 100 100 100 100 100 100 100 100 68 100 100 100 100 100 100 100 100 100 100 100 100 100 100 100 100 100 100 100 100 100 100 100 100 100 100 100 100 100 100 100 100 100 100 100 100 99
100 92 100 100 100 100 100 100 100 100 79 46 59 100 100 100 100 100 100 100 100 100 100 100 100 100 100 100 100 100 100 100 100 100 100 100 100 100 100 100 100 100 100 100 100 100 100 100 96
100 100 100 100 100 100 100 100 100 86 92 100 100 100 100 100 100 100 100 100 100 100 100 100 100 100 100 100 100 100 100 100 100 100 100 100 100 100 100 100 100 100 100 100 100 100 94 5 81
6 96 94 96 100 100 100 100 100 100 100 100 100 100 100 100 100 100 100 100 100 100 100 100 100 100 100 100 100 100 100 100 100 100 100 100 100 100 100 100 100 100 100 100 86 12 42 6 5
100 40 97 100 100 98 100 100 100 100 100 100 63 100 100 100 100 100 100 100 100 100 100 100 100 100 100 100 100 100 100 100 100 100 100 100 100 100 100 100 100 100 100 44 29 5 5 3 0
43 100 100 100 100 90 75 100 100 100 100 100 99 100 100 100 100 100 64 74 100 100 100 100 100 100 100 100 100 100 100 100 100 100 100 100 100 100 100 100 81 17 11 42 5 5 0 4 5
99 100 100 100 100 100 67 100 100 70 38 65 5 62 100 100 100 100 100 100 89 34 50 94 80 70 71 83 100 99 92 100 100 100 100 100 100 98 90 47 83 87 16 5 9 8 20 77 66
100 69 100 100 100 100 100 99 84 93 17 92 79 94 64 81 100 100 100 100 100 69 40 77 100 100 100 100 98 79 87 80 84 93 43 39 99 100 98 67 80 26 17 70 98 91 75 56 87
100 100 89 100 100 100 100 100 7 13 100 100 97 61 100 87 95 74 53 63 98 65 24 6 38 93 100 73 34 60 33 41 68 48 60 63 20 5 5 5 5 5 26 93 90 75 96 100 0
100 98 12 100 100 85 70 20 25 25 49 100 94 94 95 8 92 12 5 5 50 8 5 22 30 69 20 5 5 5 5 5 4 0 0 1 2 5 5 5 5 68 41 69 100 100 100 99 13
100 87 76 100 100 58 20 49 100 68 84 95 92 100 94 95 86 5 4 25 66 10 29 100 77 19 27 5 5 3 5 5 0 0 0 4 5 11 66 80 100 100 53 100 88 44 44 6 5
76 100 97 75 96 38 5 25 40 86 100 67 33 100 73 92 84 45 13 24 26 17 84 73 14 4 0 0 4 1 5 5 2 3 5 45 58 74 100 70 32 100 95 78 90 41 49 5 5
20 73 79 94 60 6 7 4 87 91 100 100 78 5 4 52 44 100 97 3 21 28 14 4 1 0 0 0 5 5 17 96 100 99 100 100 100 100 97 100 100 100 87 93 97 90 100 5 42
100 100 47 59 24 5 32 19 68 36 7 25 3 2 0 0 0 5 5 5 7 5 0 0 0 1 0 0 1 79 100 100 100 100 100 100 100 99 100 93 100 100 100 99 34 80 56 87 63
100 71 99 100 73 93 37 18 45 97 89 31 2 0 0 0 4 0 3 72 64 0 0 0 0 0 0 0 55 100 100 100 100 100 100 100 100 100 100 100 100 100 81 98 84 100 95 98 65
81 100 55 49 100 57 12 32 84 100 24 48 2 5 13 5 0 0 0 0 0 0 0 0 0 2 5 0 4 19 74 100 100 100 100 100 100 84 100 100 100 78 92 96 66 100 91 74 82
92 29 50 95 92 100 84 5 36 5 5 4 13 5 2 0 0 0 0 3 5 3 0 0 5 5 4 3 5 10 55 69 100 99 100 45 96 100 100 99 87 31 22 15 92 97 100 100 100

GFSSGP_prec_cloud_039.txt.gz
Cloud_Cover
0 0 0 0 0 0 0 0 0 0 0 0 0 26 1 36 37 17 80 42 72 100 92 31 3 8 66 91 100 100 74 91 97 78 93 68 66 62 20 42 85 26 40 7 5 5 8 20 5
0 0 3 18 0 0 4 9 34 8 0 0 0 2 1 62 92 98 100 41 100 100 95 47 20 8 17 51 19 86 75 92 74 100 100 100 100 100 89 80 89 95 98 61 43 62 11 86 88
0 0 3 0 0 51 42 100 77 5 2 2 2 2 4 75 56 75 34 97 100 100 94 21 58 94 18 100 12 91 100 100 100 100 100 100 100 100 100 100 100 100 100 92 10 73 100 72 86
0 0 6 0 39 100 100 20 84 5 4 5 90 71 21 100 100 54 98 100 99 99 100 100 7 86 100 100 70 97 100 100 100 100 100 100 100 100 100 100 100 99 94 9 27 7 5 15 100
0 0 29 100 100 85 24 34 5 5 4 8 98 67 94 99 99 91 100 100 100 100 100 100 100 100 100 100 100 66 100 100 96 100 100 100 100 100 100 100 98 81 45 79 75 6 41 100 100
0 0 100 100 46 42 24 6 10 97 37 25 5 100 99 100 71 100 100 100 100 100 100 98 77 100 100 100 98 100 100 100 100 100 100 100 100 98 93 100 100 100 100 100 86 49 6 56 98
5 11 100 100 7 76 100 70 83 70 13 99 99 100 100 100 100 97 99 100 100 100 100 100 100 100 100 100 100 100 100 100 100 100 100 100 100 100 100 100 100 100 100 73 100 100 55 100 100
7 100 100 100 100 100 92 98 63 9 82 100 96 100 100 100 100 100 100 100 100 100 100 100 100 100 100 100 100 100 100 100 100 100 71 100 100 100 100 66 100 100 99 100 98 76 100 99 98
88 100 100 79 54 100 100 100 100 100 100 100 100 100 100 100 100 99 100 100 100 100 100 100 100 100 100 100 100 100 100 100 99 100 66 100 100 100 100 94 100 100 100 100 100 100 100 100 100
100 100 87 52 100 100 100 100 100 100 100 100 100 100 100 100 100 100 100 100 100 100 100 100 100 100 100 100 100 100 100 100 100 100 100 100 100 100 100 100 100 100 100 100 100 86 66 99 100
100 100 60 100 99 100 100 90 100 100 100 100 100 100 100 100 100 100 100 100 100 100 100 100 100 100 100 100 100 100 100 100 100 100 100 100 100 100 100 100 100 97 97 32 75 74 100 54 65
99 61 100 24 99 100 100 100 100 100 100 100 100 100 92 100 100 100 100 100 100 100 100 100 100 100 100 100 100 100 100 100 100 100 100 100 100 100 100 100 100 100 75 100 100 100 90 100 100
100 99 88 100 100 100 100 100 100 100 100 98 100 100 100 100 100 97 100 96 100 100 100 100 100 100 100 100 100 100 100 100 100 100 100 100 100 100 100 100 100 100 100 100 100 100 100 100 100
100 93 100 100 100 100 100 100 100 100 100 100 100 100 100 100 100 100 100 100 100 100 100 100 100 100 100 100 100 100 100 100 100 100 100 100 100 100 100 100 100 100 100 100 100 100 99 100 56
100 91 99 100 100 100 100 99 100 100 100 100 100 100 100 100 100 100 100 100 100 100 100 100 100 100 100 100 100 100 100 100 100 100 100 100 100 100 100 100 100 100 100 95 100 100 100 100 61
100 100 100 100 100 100 100 91 100 100 98 98 100 100 100 100 100 100 100 100 100 100 100 100 100 100 100 100 100 100 100 100 100 100 100 100 100 100 100 100 100 100 100 100 100 100 100 100 100
100 94 100 100 100 100 100 98 100 100 100 64 100 100 100 100 100 100 100 100 98 100 91 100 96 64 100 100 100 96 100 100 100 100 100 100 100 100 100 100 100 100 100 100 100 100 100 100 88
100 79 72 100 100 100 100 100 100 100 100 100 99 100 89 100 100 100 100 97 93 100 100 100 100 100 100 100 100 100 100 100 100 100 100 100 100 100 100 100 100 100 100 97 100 100 100 63 7
58 98 100 100 100 100 100 80 100 100 100 100 100 88 82 100 100 100 100 100 100 100 100 100 100 100 100 100 100 100 100 100 100 100 100 100 100 100 100 100 100 100 100 100 99 69 5 17 4
66 98 100 100 100 100 100 100 100 100 98 47 92 82 95 100 100 100 100 100 100 100 100 100 100 100 100 100 100 100 100 100 100 100 100 100 100 100 99 72 61 89 84 96 12 4 0 5 26
100 86 96 95 100 100 100 100 100 100 100 100 63 100 100 100 84 100 100 100 100 100 100 100 100 100 100 100 100 100 100 100 100 100 100 100 99 75 76 50 53 35 3 1 0 1 5 66 64
92 83 93 97 82 100 100 100 100 17 84 100 100 98 100 100 99 74 18 5 18 86 54 100 100 100 100 56 53 9 58 25 59 90 69 70 52 47 18 1 2 30 37 84 69 89 54 5 5
99 98 17 37 100 100 99 100 100 100 100 85 96 100 100 100 100 100 93 50 29 10 38 5 47 99 99 79 16 16 23 18 25 5 5 4 0 1 5 7 7 7 40 28 100 32 6 5 91
81 99 59 74 100 95 95 100 100 99 91 54 98 100 100 5 44 77 91 100 100 68 99 50 87 100 100 100 100 73 39 37 9 5 2 0 5 6 22 91 6 64 84 100 74 68 71 18 50
79 100 97 100 100 11 40 23 10 60 100 100 98 86 6 5 5 5 6 75 100 89 49 85 100 100 100 96 99 71 55 20 5 5 5 5 60 98 100 62 44 100 88 99 100 100 91 63 62
5 72 99 100 22 13 97 53 99 23 62 56 90 100 26 5 5 7 10 88 100 100 100 100 100 100 100 99 46 57 92 30 7 13 6 72 89 100 100 100 100 100 100 100 96 100 100 100 93
37 7 77 5 6 36 14 9 6 25 51 45 5 5 36 48 5 0 41 4 6 96 100 100 99 92 34 13 47 2 2 4 26 42 43 100 100 100 100 100 100 100 100 100 97 100 95 100 80
69 30 82 15 22 8 10 27 90 5 17 36 6 15 14 5 4 2 14 18 37 83 85 18 5 3 0 0 0 0 0 4 31 75 100 100 100 100 100 100 100 100 100 100 100 95 99 98 92
29 5 5 16 52 17 7 99 10 5 6 50 8 6 2 2 0 0 4 2 0 7 7 8 0 0 0 0 0 5 5 10 24 100 100 100 91 87 42 61 100 100 100 100 98 100 100 100 100
82 5 7 34 36 5 5 97 52 5 22 100 67 5 5 0 0 0 0 0 0 0 0 0 0 0 0 0 3 4 15 9 48 100 14 64 57 74 58 100 100 100 97 98 100 100 100 100 33

GFSSGP_prec_cloud_042.txt.gz
Cloud_Cover
0 0 0 0 0 0 0 0 5 62 14 95 85 81 29 88 17 9 71 73 66 97 100 62 9 1 0 5 5 5 5 63 88 75 45 58 82 93 87 83 29 6 5 71 96 45 5 5 2
0 0 0 0 1 8 0 4 51 4 0 4 86 60 30 70 62 100 100 88 100 94 65 38 14 4 6 9 5 5 73 79 99 97 61 68 48 8 5 10 5 18 100 72 100 15 5 4 2
0 0 0 0 10 100 56 5 4 2 0 5 4 2 4 14 69 100 96 100 100 96 37 8 13 49 8 34 5 52 100 39 98 46 37 90 59 84 56 45 100 94 89 100 51 21 30 51 4
0 0 0 0 7 100 68 0 5 0 1 40 85 4 45 99 78 94 51 38 100 92 79 100 100 74 99 100 99 99 98 96 76 9 97 100 80 63 27 53 100 100 87 49 31 46 14 100 5
0 0 0 0 33 83 62 89 41 5 5 67 99 37 100 100 100 99 91 100 100 100 95 87 100 100 100 100 100 100 100 99 99 98 100 100 100 100 100 100 92 68 22 39 58 90 48 38 5
0 0 0 0 52 100 88 56 98 10 90 20 14 14 99 100 100 100 100 100 100 100 100 100 100 100 100 100 100 100 100 100 100 98 100 100 100 99 100 98 80 15 46 13 29 10 50 60 5
0 0 0 12 8 54 86 100 67 5 5 22 24 76 100 100 100 100 100 100 100 100 100 100 100 100 100 100 100 100 100 100 100 100 100 100 100 100 100 100 70 10 84 60 5 5 5 78 5
0 0 14 100 100 100 54 100 97 100 100 100 87 99 99 100 100 100 98 100 100 100 100 100 100 100 100 100 100 100 100 100 100 100 100 100 100 100 100 100 98 8 16 19 5 5 5 7 100
0 73 100 94 100 100 93 100 40 100 100 100 100 100 100 100 58 92 89 100 100 100 100 100 100 100 100 100 100 100 100 100 100 100 100 100 100 99 100 98 99 94 100 76 5 15 64 100 11
0 100 95 100 100 100 100 50 100 100 90 100 100 100 100 100 98 100 100 100 100 100 100 100 100 100 100 100 100 100 100 100 100 100 100 100 97 99 100 100 100 89 76 99 99 100 28 100 16
11 100 76 100 100 100 100 100 100 100 100 100 100 100 100 100 100 100 100 100 100 100 100 100 100 100 100 100 100 100 100 100 100 100 100 100 100 100 100 100 100 100 100 100 100 55 100 100 100
82 100 100 100 100 100 100 100 100 100 100 100 100 100 100 100 100 100 98 100 100 100 100 100 100 100 100 100 100 100 100 100 100 100 100 100 100 100 100 100 100 100 99 100 99 100 100 100 100
100 99 100 100 100 100 100 100 100 100 100 100 100 100 100 100 100 100 100 100 100 100 100 100 100 100 100 100 100 100 100 100 100 100 100 100 100 100 100 100 100 100 100 100 100 52 7 100 93
99 92 100 100 100 100 100 100 100 100 100 100 100 100 100 100 100 100 100 100 100 100 100 100 100 100 100 100 100 100 100 100 100 100 100 100 100 95 100 93 90 100 100 48 97 100 87 77 32
94 92 100 100 100 100 100 96 100 100 100 100 86 100 100 100 100 100 100 100 100 100 100 100 100 100 100 100 100 100 100 100 100 100 100 100 100 100 100 100 100 100 100 96 57 54 69 24 22
100 98 81 100 100 100 92 98 100 100 100 88 100 100 100 100 100 100 89 100 100 100 100 100 100 100 100 100 100 100 100 100 100 100 100 100 100 100 100 100 100 100 100 64 97 69 88 17 75
100 48 83 92 100 100 78 91 100 100 100 100 100 100 100 100 100 100 92 9 92 100 100 100 100 100 100 100 100 100 100 100 100 100 100 100 100 100 18 85 100 100 100 100 100 100 100 100 100
100 77 88 93 100 99 91 75 100 100 100 100 100 100 100 100 100 100 100 60 85 20 18 89 100 100 100 100 100 100 100 100 100 100 100 100 100 100 100 100 100 100 100 100 100 100 77 95 68
97 100 100 100 100 100 100 100 100 100 100 100 100 100 100 100 100 100 100 100 76 30 87 28 98 100 100 99 36 100 92 94 100 100 100 100 100 100 100 100 100 100 100 100 60 16 96 35 3
9 100 100 100 100 50 100 98 100 100 100 100 100 100 100 100 100 100 100 100 100 100 100 99 66 90 99 100 100 100 100 100 100 100 100 100 100 100 100 99 100 68 17 15 54 54 2 0 0
5 13 53 100 100 95 92 87 100 100 100 100 100 86 69 94 100 100 100 100 100 100 97 83 82 99 99 100 100 100 100 100 100 100 85 100 100 96 76 67 6 31 86 29 1 0 0 4 5
68 42 40 100 100 99 91 65 94 91 100 100 100 99 87 89 100 100 100 100 100 100 100 100 100 100 100 100 100 100 100 97 100 70 100 97 81 95 26 11 46 8 1 0 0 4 5 70 99
42 63 77 100 64 83 81 56 7 22 47 98 100 100 100 78 17 5 5 90 99 100 100 100 100 100 100 100 100 100 100 76 66 62 71 61 32 68 7 4 0 0 5 4 14 91 86 99 11
6 94 51 53 100 100 100 93 100 81 95 77 99 100 100 100 100 49 38 67 92 96 99 94 100 100 100 100 100 100 100 100 51 75 86 65 43 1 5 5 5 5 10 79 67 98 100 100 18
5 13 35 42 97 100 100 98 87 98 88 96 94 100 94 99 96 97 72 53 5 9 74 99 100 100 100 100 100 100 100 100 100 100 39 22 73 22 10 19 62 60 63 69 100 100 100 100 12
5 31 36 55 10 33 86 94 98 78 38 98 61 79 96 100 96 90 18 6 5 81 100 100 89 100 100 100 100 100 100 100 100 100 57 99 99 66 94 98 100 100 99 100 96 100 98 19 95
2 15 72 70 37 25 98 100 89 96 92 98 100 100 76 93 59 82 66 74 5 49 100 100 100 100 100 100 100 82 100 100 89 100 100 100 64 94 100 100 100 99 97 100 100 100 100 99 69
3 3 27 22 68 100 100 100 100 55 100 100 100 100 100 99 87 20 5 5 1 4 5 72 100 100 100 100 89 28 45 61 65 94 91 80 100 100 100 100 74 96 92 99 100 99 100 100 100
81 12 17 23 25 72 56 100 50 10 78 100 100 98 92 79 38 11 8 5 4 5 4 9 32 21 20 7 2 2 27 81 83 100 100 100 100 100 98 78 100 100 100 97 100 90 100 100 67
6 12 98 82 56 48 99 89 6 77 5 50 98 25 88 49 5 5 5 31 31 14 16 26 11 26 93 82 5 92 84 94 96 99 83 84 100 100 100 100 100 100 100 98 100 100 94 85 38